Palmer, AK

6:11 AM AKDT on September 19, 2017 (GMT -0800)
Palmer Municipal

Weather History for PAAQ - April, 2013

Change the Weather History Date:

Saturday, April 20, 2013

  Actual Average Record
Temperature  
Mean Temperature 32 °F -  
Max Temperature 44 °F 47 °F 60 °F (1951)
Min Temperature 21 °F 28 °F 6 °F (1959)
Degree Days  
Heating Degree Days 34    
Moisture  
Dew Point 14 °F    
Average Humidity 47    
Maximum Humidity 63    
Minimum Humidity 26    
Precipitation  
Precipitation 0.00 in - - ()
Sea Level Pressure  
Sea Level Pressure 30.39 in    
Wind  
Wind Speed 5 mph (ESE)    
Max Wind Speed 20 mph    
Max Gust Speed 23 mph    
Visibility 10 miles    
Events      
Averages and records for this station are not official NWS values.
T = Trace of Precipitation, MM = Missing Value Source: NWS Daily Summary

Daily Weather History Graph

Daily Weather History Graph

Search for Another Location

Airport or City:

Trip Planner

Search our weather history database for the weather conditions in past years. The results will help you decide how hot, cold, wet, or windy it might be!

Date:

Astronomy

Apr. 20, 2013 Rise Set
Actual Time 6:17 AM AKDT 9:34 PM AKDT
Civil Twilight 5:25 AM AKDT 10:26 PM AKDT
Nautical Twilight 4:11 AM AKDT 11:42 PM AKDT
Astronomical Twilight 2:27 AM AKDT 1:22 AM AKDT
Moon 3:04 PM AKDT (4/20) 4:42 AM AKDT (4/20)
Length of Visible Light 17h 01m
Length of Day
15h 17m
Waxing Gibbous, 72% of the Moon is Illuminated
Apr 20
Waxing Gibbous
Apr 25
Full
May 2
Last Quarter
May 9
New
May 17
First Quarter

Hourly Weather History & Observations

Time (AKDT) Temp. Windchill Dew Point Humidity Pressure Visibility Wind Dir Wind Speed Gust Speed Precip Events Conditions
12:53 AM 27.0 °F 20.5 °F 14.0 °F 58% 30.34 in 10.0 mi North 5.8 mph - N/A   Clear
1:53 AM 27.0 °F - 10.9 °F 51% 30.35 in 10.0 mi Calm Calm - N/A   Clear
2:53 AM 26.1 °F 19.4 °F 10.9 °F 53% 30.35 in 10.0 mi NNE 5.8 mph - N/A   Clear
3:53 AM 21.0 °F - 10.0 °F 63% 30.37 in 10.0 mi Calm Calm - N/A   Clear
4:53 AM 24.1 °F - 10.9 °F 57% 30.37 in 10.0 mi Calm Calm - N/A   Clear
5:53 AM 26.1 °F 18.4 °F 9.0 °F 49% 30.37 in 10.0 mi NNW 6.9 mph - N/A   Clear
6:53 AM 23.0 °F - 9.0 °F 55% 30.38 in 10.0 mi Calm Calm - N/A   Clear
7:53 AM 23.0 °F - 10.9 °F 60% 30.39 in 10.0 mi Calm Calm - N/A   Clear
8:53 AM 27.0 °F - 12.9 °F 56% 30.39 in 10.0 mi Calm Calm - N/A   Clear
9:53 AM 34.0 °F - 12.0 °F 40% 30.39 in 10.0 mi Calm Calm - N/A   Clear
10:53 AM 35.1 °F - 12.0 °F 39% 30.40 in 10.0 mi Calm Calm - N/A   Clear
11:53 AM 41.0 °F - 10.9 °F 29% 30.40 in 10.0 mi Calm Calm - N/A   Clear
12:53 PM 42.1 °F - 9.0 °F 26% 30.41 in 10.0 mi Calm Calm - N/A   Clear
1:53 PM 41.0 °F 39.0 °F 12.9 °F 32% 30.41 in 10.0 mi SSE 3.5 mph - N/A   Clear
2:53 PM 42.1 °F 37.1 °F 12.0 °F 29% 30.40 in 10.0 mi SE 8.1 mph - N/A   Clear
3:53 PM 42.1 °F 36.1 °F 16.0 °F 35% 30.41 in 10.0 mi SSE 10.4 mph - N/A   Clear
4:53 PM 41.0 °F 34.3 °F 19.0 °F 41% 30.41 in 10.0 mi SE 11.5 mph - N/A   Clear
5:53 PM 42.1 °F 34.9 °F 18.0 °F 38% 30.40 in 10.0 mi SE 13.8 mph - N/A   Clear
6:53 PM 39.9 °F 32.9 °F 19.9 °F 45% 30.39 in 10.0 mi SE 11.5 mph - N/A   Clear
7:53 PM 39.0 °F 31.4 °F 21.0 °F 49% 30.39 in 10.0 mi SE 12.7 mph - N/A   Clear
8:53 PM 37.0 °F 27.7 °F 21.9 °F 54% 30.39 in 10.0 mi SE 16.1 mph 23.0 mph N/A   Clear
9:53 PM 35.1 °F 24.8 °F 21.0 °F 57% 30.40 in 10.0 mi SE 17.3 mph - N/A   Clear
10:53 PM 34.0 °F 22.7 °F 21.0 °F 59% 30.41 in 10.0 mi SE 19.6 mph - N/A   Clear
11:53 PM 33.1 °F 26.1 °F 19.0 °F 56% 30.41 in 10.0 mi East 8.1 mph - N/A   Clear